Flag for Canada Weather past 2 weeks in Delta, British Columbia, Canada

Now
68 °F

Overcast.


Feels Like: 68 °F
Forecast: 63 / 88 °F
Wind: 9 mph from East

Location: Vancouver International Air-Port

Current Time: Jul 7, 2015 at 9:58:39 PM

Latest Report: Jul 7, 2015 at 9:00 PM


Visibility: 12 mi

Pressure: 29.88 "Hg

Humidity: 69%

Dew point: 57 °F

Location of DeltaLocation

Historic Weather in Delta — Graph

°F

Delta temperature yesterday

Maximum temperature yesterday: 81 °F (at 3:00 PM)
Minimum temperature yesterday: 63 °F (at 3:00 AM)
Average temperature yesterday: 70 °F

Past Weeks' High & Low Weather Summary

 TemperatureHumidityPressure
High81 °F (Jun 29, 12:00 PM)94% (Jun 25, 12:00 AM)30.15 "Hg (Jun 25, 12:00 AM)
Low54 °F (Jun 23, 5:00 AM)37% (Jul 6, 3:00 PM)29.75 "Hg (Jul 4, 7:00 PM)
Average69 °F69%29.98 "Hg
* Reported Jun 22 8:00 PM — Jul 7 8:00 PM, Delta, Weather by CustomWeather, © 2015

Note: Actual official high and low records may vary slightly from our data, if they occured in-between our weather recording intervals... More about our weather records

Advertising

Delta weather history for previous 24 hours

 ConditionsComfort  
Time TempWeatherWind HumidityBarometerVisibility
8:00 PM
Tue, Jul 7
72 °FSunny.7 mph61%29.87 "Hg10 mi
7:00 PM72 °FSunny.6 mph65%29.88 "Hg10 mi
6:00 PM72 °FOvercast.7 mph65%29.89 "Hg12 mi
5:00 PM72 °FOvercast.9 mph65%29.91 "Hg12 mi
4:00 PM72 °FOvercast.9 mph65%29.93 "Hg15 mi
3:00 PM72 °FOvercast.9 mph65%29.95 "Hg15 mi
2:00 PM70 °FOvercast.12 mph73%29.97 "Hg15 mi
1:00 PM72 °FSunny.7 mph61%29.99 "Hg15 mi
12:00 PM68 °FSunny.9 mph73%30.01 "Hg15 mi
11:00 AM68 °FSunny.7 mph64%30.02 "Hg15 mi
10:00 AM66 °FSunny.12 mph68%30.03 "Hg15 mi
9:00 AM64 °FSunny.12 mph73%30.04 "Hg15 mi
8:00 AM63 °FSunny.13 mph77%30.04 "Hg15 mi
7:00 AM61 °FSunny.10 mph83%30.03 "Hg15 mi
6:00 AM59 °FClear.8 mph88%30.02 "Hg15 mi
5:00 AM61 °FClear.8 mph83%30.01 "Hg15 mi
4:00 AM59 °FPassing clouds.5 mph82%29.99 "Hg12 mi
3:00 AM61 °FOvercast.5 mph77%29.98 "Hg12 mi
2:00 AM63 °FOvercast.5 mph77%29.97 "Hg12 mi
1:00 AM63 °FOvercast.8 mph77%29.97 "Hg12 mi
12:00 AM63 °FOvercast.6 mph83%29.96 "Hg12 mi
11:00 PM
Mon, Jul 6
63 °FOvercast.8 mph83%29.96 "Hg10 mi
10:00 PM66 °FOvercast.7 mph68%29.95 "Hg10 mi
9:00 PM68 °FOvercast.9 mph64%29.93 "Hg10 mi
Weather by CustomWeather, © 2015

See weather overviewHow to use our weather pages